Tracking 19176 objects as of 27-May-2018
HD Live streaming from Space Station
objects crossing your sky now

TVSAT 1

Track TVSAT 1 now!
TVSAT 1 is classified as:


NORAD ID: 18570
Int'l Code: 1987-095A
Perigee: 35,922.8 km
Apogee: 36,431.6 km
Inclination: 14.8 °
Period: 1,455.7 minutes
Semi major axis: 42548 km
RCS: 3.1623 m2 (large)
Launch date: November 21, 1987
Source: Germany (GER)
Launch site: FRENCH GUIANA (FRGUI)
aabbcc
Your satellite tracking list
Your tracking list is empty




NASA's NSSDC Master Catalog

Two Line Element Set (TLE):
1 18570U 87095A   18146.72215338 -.00000102 +00000-0 +00000-0 0  9995
2 18570 014.7658 351.5810 0059786 053.7941 121.3297 00.98919425099720
Source of the keplerian elements: AFSPC